Всё
Avenger Fld Airport (Sweetwater, TX) SWW Погода
|
Sweetwater, TX (KSWW)
Безоблачно
Легкий ветер |
|
13 °C |
There is no TAF data available at SWW or any nearby airports.
Недавняя история METAR для SWW
| Date | Time (CDT) | Flight Rules | Wind Dir. | Speed | Type | Height AGL (ft) | Visibility | Temp (°C) | Temp (°F) | Dew Point (°C) | Dew Point (°F) | Rel. Humid. | Pressure | Density Altitude | Remarks |
|---|---|---|---|---|---|---|---|---|---|---|---|---|---|---|---|
| 07-май | 00:15 | VFR | 70° | 8 kt | 10 miles | 13° | 55° | 7° | 44° | 67% | 30.08 in Hg | 2,454 ft | |||
| 06-май | 23:55 | VFR | 70° | 7 kt | 10 miles | 14° | 57° | 7° | 44° | 66% | 30.06 in Hg | 2,594 ft | |||
| 06-май | 23:35 | VFR | 70° | 10 kt | 10 miles | 14° | 57° | 7° | 44° | 63% | 30.06 in Hg | 2,594 ft | |||
| 06-май | 23:15 | VFR | 80° | 8 kt | 10 miles | 14° | 57° | 7° | 44° | 62% | 30.05 in Hg | 2,604 ft | |||
| 06-май | 22:55 | VFR | 80° | 8 kt | 10 miles | 15° | 59° | 7° | 44° | 61% | 30.05 in Hg | 2,724 ft | |||
| 06-май | 22:15 | VFR | 80° | 10 kt | 10 miles | 16° | 60° | 7° | 44° | 56% | 30.04 in Hg | 2,854 ft | |||
| 06-май | 21:55 | VFR | 70° | 8 kt | 10 miles | 16° | 60° | 7° | 44° | 55% | 30.03 in Hg | 2,864 ft | |||
| 06-май | 21:35 | VFR | 80° | 9 kt | 10 miles | 16° | 60° | 7° | 44° | 53% | 30.02 in Hg | 2,874 ft | |||
| 06-май | 21:15 | VFR | 90° | 8 kt | 10 miles | 17° | 62° | 6° | 42° | 50% | 30.01 in Hg | 3,004 ft | |||
| 06-май | 20:55 | VFR | 90° | 9 kt | 10 miles | 17° | 62° | 6° | 42° | 48% | 30.00 in Hg | 3,014 ft | |||
| 06-май | 20:15 | VFR | 80° | 9 kt | 10 miles | 19° | 66° | 6° | 42° | 41% | 29.99 in Hg | 3,264 ft | |||
| 06-май | 19:55 | VFR | 90° | 12 kt | 10 miles | 20° | 68° | 6° | 42° | 40% | 29.98 in Hg | 3,394 ft | |||
| 06-май | 19:35 | VFR | 80° | 12 kt | 10 miles | 21° | 69° | 6° | 42° | 38% | 29.98 in Hg | 3,514 ft | |||
| 06-май | 19:15 | VFR | 70° | 11 kt | 10 miles | 21° | 69° | 6° | 42° | 38% | 29.98 in Hg | 3,514 ft | |||
| 06-май | 18:55 | VFR | 80° | 9 kt | 10 miles | 20° | 68° | 6° | 42° | 39% | 29.98 in Hg | 3,394 ft | |||
| 06-май | 18:35 | VFR | 90° | 10 kt | 10 miles | 21° | 69° | 5° | 41° | 36% | 29.98 in Hg | 3,514 ft | |||
| 06-май | 18:15 | VFR | 60° | 9 kt | 10 miles | 21° | 69° | 5° | 41° | 35% | 29.98 in Hg | 3,514 ft | Wind gusting to 14 KT | ||
| 06-май | 17:55 | VFR | 70° | 9 kt | 10 miles | 22° | 71° | 5° | 41° | 35% | 29.97 in Hg | 3,644 ft | |||
| 06-май | 17:35 | VFR | 90° | 6 kt | 10 miles | 22° | 71° | 5° | 41° | 33% | 29.97 in Hg | 3,644 ft | Wind gusting to 14 KT | ||
| 06-май | 17:15 | VFR | 60° | 8 kt | 10 miles | 22° | 71° | 5° | 41° | 34% | 29.97 in Hg | 3,644 ft | Wind gusting to 14 KT | ||
| 06-май | 16:55 | VFR | 40° | 6 kt | 10 miles | 22° | 71° | 6° | 42° | 36% | 29.98 in Hg | 3,634 ft | Wind gusting to 14 KT | ||
| 06-май | 16:35 | VFR | 40° | 9 kt | 10 miles | 22° | 71° | 6° | 42° | 36% | 29.98 in Hg | 3,634 ft | |||
| 06-май | 16:15 | VFR | 70° | 5 kt | 10 miles | 22° | 71° | 6° | 42° | 36% | 29.98 in Hg | 3,634 ft | |||
| 06-май | 15:55 | VFR | 70° | 7 kt | 10 miles | 20° | 68° | 6° | 42° | 40% | 29.99 in Hg | 3,384 ft |
Вход
| Ваш браузер не поддерживается.. обновите веб-браузер |
